QPF
0.05 0.06 0.07 0.06 0.05 0.06 0.05 0.04 0.03 0.04 0.04 0.03 0.03 0.05 0.06 0.05 0.05 0.05 0.05 0.05 0.06 0.05 0.07 0.06 0.03 0.02 0.03 0.04 0.05 0.06 0.07 0.09 0.09 0.09 0.07 0.05 0.04 0.04 0.04 0.04 0.04 0.05 0.06
0.06 0.06 0.08 0.07 0.07 0.06 0.05 0.05 0.05 0.05 0.04 0.03 0.03 0.03 0.04 0.04 0.04 0.05 0.05 0.06 0.05 0.04 0.06 0.06 0.04 0.04 0.04 0.04 0.05 0.05 0.06 0.07 0.06 0.07 0.09 0.06 0.04 0.04 0.04 0.03 0.03 0.03 0.04
0.06 0.06 0.09 0.11 0.11 0.09 0.07 0.06 0.05 0.03 0.03 0.03 0.03 0.02 0.03 0.03 0.03 0.03 0.04 0.05 0.06 0.06 0.07 0.06 0.05 0.05 0.05 0.05 0.07 0.07 0.07 0.09 0.09 0.08 0.08 0.06 0.03 0.02 0.02 0.02 0.02 0.03 0.03
0.04 0.05 0.06 0.06 0.07 0.06 0.05 0.04 0.03 0.02 0.03 0.03 0.02 0.02 0.03 0.03 0.03 0.02 0.03 0.04 0.05 0.06 0.07 0.06 0.05 0.06 0.06 0.07 0.06 0.07 0.08 0.09 0.08 0.07 0.05 0.04 0.04 0.03 0.03 0.03 0.04 0.04 0.04
0.05 0.03 0.04 0.04 0.04 0.03 0.02 0.02 0.03 0.02 0.02 0.02 0.02 0.02 0.04 0.04 0.04 0.03 0.03 0.03 0.04 0.04 0.04 0.05 0.05 0.06 0.07 0.07 0.08 0.07 0.06 0.06 0.05 0.05 0.04 0.05 0.04 0.04 0.04 0.05 0.06 0.06 0.06
0.06 0.03 0.02 0.02 0.01 0.02 0.01 0.02 0.02 0.03 0.03 0.03 0.02 0.02 0.04 0.04 0.03 0.03 0.03 0.04 0.04 0.04 0.04 0.05 0.05 0.05 0.05 0.05 0.05 0.04 0.04 0.04 0.04 0.06 0.08 0.08 0.06 0.06 0.06 0.06 0.05 0.06 0.05
0.03 0.02 0.02 0.02 0.02 0.02 0.03 0.03 0.04 0.03 0.03 0.03 0.02 0.03 0.02 0.03 0.03 0.02 0.02 0.02 0.03 0.04 0.05 0.05 0.05 0.04 0.04 0.04 0.05 0.05 0.05 0.05 0.06 0.08 0.10 0.08 0.05 0.05 0.05 0.05 0.04 0.04 0.04
0.02 0.02 0.02 0.02 0.03 0.03 0.03 0.03 0.03 0.02 0.02 0.02 0.02 0.02 0.03 0.04 0.03 0.04 0.04 0.04 0.06 0.07 0.06 0.06 0.04 0.03 0.04 0.04 0.04 0.04 0.04 0.04 0.05 0.05 0.05 0.04 0.03 0.03 0.03 0.03 0.02 0.03 0.03
0.03 0.02 0.01 0.02 0.02 0.03 0.03 0.04 0.04 0.03 0.02 0.02 0.04 0.04 0.05 0.04 0.04 0.05 0.05 0.06 0.08 0.07 0.06 0.05 0.05 0.04 0.04 0.04 0.03 0.03 0.03 0.04 0.05 0.05 0.04 0.03 0.03 0.03 0.03 0.03 0.03 0.03 0.03
0.02 0.02 0.01 0.01 0.01 0.02 0.03 0.05 0.06 0.06 0.05 0.05 0.06 0.06 0.04 0.04 0.07 0.06 0.04 0.03 0.04 0.06 0.06 0.06 0.05 0.04 0.03 0.02 0.02 0.03 0.03 0.04 0.04 0.04 0.04 0.03 0.02 0.02 0.03 0.04 0.04 0.04 0.04
0.03 0.02 0.01 0.01 0.02 0.02 0.04 0.05 0.06 0.07 0.08 0.08 0.06 0.06 0.05 0.05 0.06 0.04 0.03 0.02 0.02 0.02 0.03 0.04 0.03 0.02 0.02 0.02 0.02 0.03 0.04 0.04 0.03 0.02 0.01 0.01 0.01 0.01 0.02 0.03 0.03 0.03 0.04
0.05 0.09 0.09 0.05 0.05 0.05 0.06 0.06 0.06 0.07 0.07 0.06 0.06 0.04 0.03 0.03 0.03 0.02 0.01 0.01 0.01 0.01 0.02 0.02 0.02 0.01 0.01 0.01 0.01 0.01 0.02 0.02 0.01 0.01 0.01 0.01 0.01 0.01 0.02 0.01 0.01 0.02 0.02
0.06 0.11 0.11 0.06 0.06 0.08 0.08 0.07 0.07 0.07 0.07 0.06 0.04 0.02 0.02 0.01 0.01 0.01 0.01 0.01 0.01 0.01 0.02 0.02 0.01 0.01 0.00 0.00 0.00 0.00 0.00 0.00 0.01 0.01 0.01 0.01 0.02 0.02 0.01 0.01 0.01 0.01 0.01
0.06 0.07 0.07 0.05 0.06 0.08 0.09 0.08 0.07 0.06 0.06 0.06 0.05 0.04 0.02 0.02 0.01 0.01 0.00 0.00 0.01 0.01 0.01 0.01 0.01 0.01 0.00 0.00 0.00 0.00 0.00 0.00 0.00 0.01 0.01 0.01 0.01 0.01 0.01 0.01 0.01 0.01 0.01
0.04 0.05 0.04 0.03 0.03 0.04 0.06 0.06 0.06 0.07 0.08 0.06 0.04 0.03 0.02 0.01 0.01 0.01 0.00 0.00 0.00 0.01 0.01 0.00 0.01 0.00 0.00 0.00 0.00 0.00 0.00 0.00 0.00 0.00 0.01 0.01 0.01 0.01 0.01 0.01 0.01 0.01 0.01
0.03 0.04 0.06 0.06 0.05 0.04 0.04 0.04 0.03 0.03 0.03 0.02 0.02 0.01 0.01 0.01 0.01 0.00 0.00 0.00 0.00 0.01 0.00 0.00 0.00 0.00 0.00 0.00 0.00 0.00 0.00 0.00 0.00 0.00 0.00 0.00 0.01 0.01 0.01 0.01 0.01 0.01 0.01
0.03 0.02 0.02 0.03 0.03 0.02 0.02 0.01 0.02 0.02 0.02 0.01 0.01 0.01 0.01 0.01 0.01 0.00 0.00 0.00 0.00 0.00 0.00 0.00 0.00 0.00 0.00 0.00 0.00 0.00 0.00 0.00 0.00 0.00 0.00 0.00 0.00 0.00 0.00 0.00 0.00 0.00 0.00
0.03 0.02 0.02 0.02 0.02 0.01 0.01 0.01 0.01 0.01 0.01 0.01 0.01 0.01 0.01 0.01 0.01 0.01 0.00 0.00 0.00 0.00 0.00 0.00 0.00 0.00 0.00 0.00 0.00 0.00 0.00 0.01 0.01 0.01 0.01 0.01 0.00 0.00 0.00 0.00 0.00 0.01 0.01
0.05 0.04 0.03 0.02 0.02 0.02 0.02 0.01 0.01 0.01 0.01 0.01 0.01 0.00 0.00 0.00 0.00 0.01 0.01 0.00 0.00 0.00 0.00 0.00 0.00 0.00 0.00 0.00 0.01 0.01 0.01 0.01 0.01 0.01 0.01 0.01 0.01 0.01 0.01 0.01 0.01 0.01 0.01
0.06 0.05 0.05 0.04 0.04 0.04 0.03 0.02 0.02 0.02 0.02 0.02 0.01 0.01 0.01 0.00 0.00 0.00 0.00 0.00 0.00 0.00 0.00 0.00 0.00 0.00 0.00 0.00 0.01 0.01 0.02 0.02 0.02 0.02 0.02 0.03 0.03 0.02 0.02 0.01 0.01 0.01 0.01
0.04 0.04 0.04 0.03 0.03 0.03 0.03 0.02 0.02 0.02 0.02 0.02 0.02 0.01 0.01 0.00 0.00 0.00 0.00 0.00 0.00 0.00 0.00 0.00 0.00 0.00 0.00 0.00 0.00 0.01 0.01 0.01 0.02 0.02 0.02 0.02 0.03 0.04 0.04 0.04 0.03 0.02 0.02
0.02 0.01 0.01 0.02 0.02 0.02 0.02 0.01 0.01 0.01 0.01 0.02 0.02 0.02 0.02 0.01 0.00 0.00 0.00 0.00 0.00 0.00 0.01 0.01 0.01 0.01 0.00 0.00 0.00 0.00 0.00 0.00 0.01 0.01 0.01 0.02 0.02 0.03 0.04 0.04 0.05 0.04 0.03
0.01 0.01 0.01 0.01 0.01 0.01 0.01 0.01 0.01 0.01 0.01 0.01 0.01 0.01 0.01 0.01 0.00 0.00 0.00 0.00 0.00 0.00 0.01 0.01 0.01 0.01 0.01 0.01 0.00 0.00 0.00 0.00 0.00 0.00 0.01 0.02 0.03 0.04 0.05 0.05 0.05 0.04 0.03
0.01 0.01 0.01 0.00 0.00 0.00 0.00 0.00 0.00 0.00 0.00 0.01 0.01 0.01 0.01 0.00 0.00 0.00 0.00 0.00 0.00 0.00 0.00 0.00 0.01 0.01 0.01 0.01 0.01 0.00 0.00 0.00 0.00 0.01 0.01 0.02 0.03 0.04 0.04 0.05 0.05 0.04 0.02
0.01 0.01 0.01 0.01 0.01 0.01 0.01 0.01 0.01 0.01 0.01 0.01 0.01 0.00 0.00 0.00 0.00 0.00 0.00 0.00 0.00 0.00 0.00 0.01 0.01 0.01 0.01 0.01 0.01 0.00 0.00 0.01 0.01 0.01 0.01 0.02 0.02 0.02 0.03 0.03 0.03 0.02 0.02
0.01 0.01 0.01 0.01 0.01 0.01 0.01 0.01 0.01 0.01 0.01 0.01 0.00 0.00 0.00 0.00 0.00 0.00 0.00 0.00 0.01 0.01 0.01 0.01 0.01 0.01 0.01 0.00 0.00 0.00 0.00 0.00 0.00 0.00 0.00 0.00 0.01 0.01 0.01 0.01 0.01 0.01 0.01
MSLP
1016.51 1017.01 1017.54 1018.05 1018.46 1018.76 1018.94 1019.01 1018.99 1018.93 1018.84 1018.75 1018.66 1018.57 1018.46 1018.31 1018.13 1017.92 1017.69 1017.46 1017.26 1017.09 1016.96 1016.86 1016.76 1016.64 1016.47 1016.22 1015.87 1015.45 1014.96 1014.45 1013.94 1013.49 1013.11 1012.84 1012.67 1012.60 1012.61 1012.67 1012.75 1012.82 1012.86
1016.70 1017.23 1017.79 1018.31 1018.75 1019.07 1019.27 1019.36 1019.37 1019.33 1019.26 1019.19 1019.13 1019.06 1018.99 1018.88 1018.75 1018.58 1018.39 1018.18 1017.98 1017.80 1017.63 1017.48 1017.32 1017.13 1016.89 1016.59 1016.21 1015.77 1015.28 1014.79 1014.31 1013.90 1013.57 1013.34 1013.22 1013.20 1013.26 1013.38 1013.52 1013.65 1013.75
1017.00 1017.55 1018.12 1018.64 1019.08 1019.40 1019.61 1019.71 1019.73 1019.70 1019.65 1019.61 1019.58 1019.55 1019.51 1019.46 1019.38 1019.26 1019.11 1018.93 1018.75 1018.56 1018.37 1018.17 1017.96 1017.73 1017.44 1017.11 1016.71 1016.28 1015.81 1015.35 1014.92 1014.56 1014.28 1014.11 1014.04 1014.06 1014.17 1014.33 1014.52 1014.71 1014.88
1017.35 1017.91 1018.47 1018.98 1019.40 1019.71 1019.91 1020.01 1020.04 1020.04 1020.02 1020.00 1020.01 1020.02 1020.03 1020.02 1019.99 1019.92 1019.81 1019.67 1019.50 1019.31 1019.12 1018.90 1018.66 1018.40 1018.09 1017.75 1017.36 1016.94 1016.52 1016.11 1015.73 1015.42 1015.19 1015.06 1015.03 1015.08 1015.22 1015.41 1015.63 1015.86 1016.08
1017.68 1018.24 1018.79 1019.28 1019.68 1019.97 1020.17 1020.27 1020.32 1020.34 1020.36 1020.38 1020.42 1020.48 1020.53 1020.56 1020.57 1020.54 1020.47 1020.36 1020.21 1020.04 1019.84 1019.62 1019.38 1019.10 1018.80 1018.46 1018.10 1017.72 1017.34 1016.98 1016.66 1016.40 1016.22 1016.11 1016.10 1016.16 1016.29 1016.48 1016.71 1016.96 1017.20
1017.91 1018.48 1019.02 1019.49 1019.88 1020.17 1020.37 1020.50 1020.58 1020.64 1020.70 1020.77 1020.85 1020.94 1021.03 1021.09 1021.13 1021.12 1021.08 1020.99 1020.86 1020.70 1020.51 1020.30 1020.07 1019.81 1019.52 1019.21 1018.88 1018.55 1018.22 1017.90 1017.63 1017.41 1017.25 1017.16 1017.15 1017.19 1017.30 1017.46 1017.66 1017.89 1018.13
1018.01 1018.59 1019.13 1019.60 1019.99 1020.30 1020.53 1020.70 1020.83 1020.94 1021.06 1021.18 1021.30 1021.42 1021.53 1021.61 1021.66 1021.66 1021.63 1021.55 1021.44 1021.29 1021.13 1020.93 1020.72 1020.48 1020.22 1019.94 1019.65 1019.36 1019.07 1018.81 1018.57 1018.38 1018.23 1018.14 1018.11 1018.12 1018.19 1018.30 1018.44 1018.62 1018.82
1017.98 1018.58 1019.13 1019.63 1020.05 1020.39 1020.67 1020.90 1021.10 1021.28 1021.45 1021.61 1021.77 1021.91 1022.03 1022.11 1022.15 1022.15 1022.12 1022.04 1021.94 1021.81 1021.67 1021.50 1021.31 1021.11 1020.88 1020.64 1020.38 1020.12 1019.87 1019.64 1019.43 1019.26 1019.12 1019.02 1018.95 1018.93 1018.94 1018.98 1019.06 1019.17 1019.31
1017.85 1018.48 1019.06 1019.60 1020.06 1020.47 1020.82 1021.12 1021.40 1021.64 1021.87 1022.07 1022.25 1022.40 1022.51 1022.57 1022.60 1022.58 1022.54 1022.46 1022.37 1022.26 1022.14 1022.01 1021.85 1021.68 1021.49 1021.28 1021.06 1020.83 1020.61 1020.40 1020.21 1020.05 1019.91 1019.80 1019.72 1019.65 1019.61 1019.59 1019.59 1019.62 1019.69
1017.67 1018.33 1018.96 1019.54 1020.07 1020.55 1020.98 1021.36 1021.71 1022.02 1022.29 1022.52 1022.71 1022.84 1022.93 1022.97 1022.97 1022.94 1022.88 1022.81 1022.74 1022.66 1022.57 1022.47 1022.35 1022.22 1022.07 1021.89 1021.70 1021.50 1021.30 1021.11 1020.94 1020.79 1020.66 1020.54 1020.44 1020.34 1020.25 1020.18 1020.12 1020.08 1020.07
1017.49 1018.18 1018.85 1019.49 1020.09 1020.64 1021.14 1021.60 1022.01 1022.37 1022.67 1022.91 1023.09 1023.21 1023.27 1023.28 1023.26 1023.21 1023.15 1023.10 1023.05 1023.01 1022.96 1022.91 1022.85 1022.76 1022.64 1022.49 1022.33 1022.15 1021.97 1021.80 1021.64 1021.50 1021.38 1021.27 1021.16 1021.05 1020.93 1020.82 1020.71 1020.61 1020.54
1017.34 1018.06 1018.77 1019.45 1020.11 1020.72 1021.29 1021.81 1022.27 1022.66 1022.97 1023.22 1023.38 1023.47 1023.51 1023.50 1023.46 1023.41 1023.37 1023.34 1023.34 1023.34 1023.36 1023.36 1023.35 1023.31 1023.23 1023.12 1022.97 1022.82 1022.65 1022.50 1022.35 1022.22 1022.11 1022.01 1021.90 1021.79 1021.67 1021.53 1021.39 1021.25 1021.12
1017.25 1017.97 1018.70 1019.42 1020.12 1020.78 1021.39 1021.95 1022.44 1022.85 1023.18 1023.41 1023.56 1023.64 1023.66 1023.64 1023.60 1023.57 1023.56 1023.58 1023.63 1023.70 1023.78 1023.84 1023.89 1023.89 1023.85 1023.77 1023.65 1023.50 1023.35 1023.20 1023.07 1022.95 1022.85 1022.76 1022.66 1022.56 1022.43 1022.29 1022.13 1021.96 1021.80
1017.20 1017.91 1018.64 1019.37 1020.09 1020.78 1021.43 1022.02 1022.53 1022.95 1023.28 1023.52 1023.66 1023.74 1023.76 1023.75 1023.73 1023.74 1023.78 1023.85 1023.97 1024.10 1024.25 1024.37 1024.47 1024.52 1024.51 1024.45 1024.34 1024.20 1024.06 1023.91 1023.78 1023.67 1023.57 1023.49 1023.40 1023.30 1023.18 1023.03 1022.86 1022.68 1022.49
1017.20 1017.87 1018.58 1019.31 1020.04 1020.75 1021.41 1022.02 1022.55 1022.99 1023.33 1023.57 1023.73 1023.82 1023.86 1023.88 1023.91 1023.97 1024.06 1024.20 1024.37 1024.57 1024.77 1024.95 1025.08 1025.16 1025.18 1025.13 1025.03 1024.89 1024.74 1024.59 1024.45 1024.33 1024.23 1024.15 1024.06 1023.96 1023.84 1023.70 1023.52 1023.33 1023.13
1017.24 1017.87 1018.54 1019.25 1019.97 1020.68 1021.36 1021.98 1022.53 1022.99 1023.36 1023.63 1023.82 1023.95 1024.03 1024.10 1024.18 1024.29 1024.44 1024.64 1024.86 1025.11 1025.34 1025.55 1025.71 1025.80 1025.83 1025.78 1025.68 1025.54 1025.38 1025.21 1025.06 1024.93 1024.82 1024.72 1024.62 1024.51 1024.38 1024.23 1024.06 1023.86 1023.66
1017.33 1017.91 1018.54 1019.22 1019.93 1020.63 1021.32 1021.96 1022.53 1023.03 1023.43 1023.75 1023.99 1024.16 1024.31 1024.43 1024.57 1024.73 1024.93 1025.16 1025.42 1025.69 1025.94 1026.15 1026.32 1026.41 1026.43 1026.38 1026.27 1026.12 1025.95 1025.77 1025.60 1025.45 1025.31 1025.19 1025.07 1024.95 1024.81 1024.65 1024.46 1024.26 1024.06
1017.51 1018.01 1018.60 1019.25 1019.93 1020.64 1021.33 1021.99 1022.59 1023.13 1023.58 1023.95 1024.25 1024.48 1024.68 1024.87 1025.05 1025.25 1025.48 1025.73 1026.00 1026.27 1026.51 1026.72 1026.87 1026.95 1026.96 1026.90 1026.78 1026.63 1026.45 1026.26 1026.08 1025.91 1025.75 1025.60 1025.46 1025.31 1025.15 1024.98 1024.79 1024.58 1024.37
1017.76 1018.21 1018.75 1019.36 1020.02 1020.72 1021.41 1022.09 1022.72 1023.30 1023.80 1024.22 1024.58 1024.87 1025.13 1025.36 1025.58 1025.81 1026.05 1026.30 1026.55 1026.80 1027.02 1027.20 1027.33 1027.40 1027.40 1027.34 1027.23 1027.08 1026.90 1026.71 1026.53 1026.34 1026.17 1026.00 1025.83 1025.66 1025.48 1025.29 1025.08 1024.87 1024.67
1018.10 1018.50 1018.99 1019.56 1020.20 1020.88 1021.57 1022.26 1022.92 1023.52 1024.06 1024.53 1024.94 1025.28 1025.58 1025.84 1026.09 1026.32 1026.56 1026.79 1027.02 1027.24 1027.43 1027.58 1027.69 1027.75 1027.75 1027.70 1027.61 1027.48 1027.32 1027.15 1026.97 1026.79 1026.61 1026.42 1026.24 1026.04 1025.84 1025.63 1025.41 1025.20 1024.99
1018.51 1018.87 1019.31 1019.85 1020.45 1021.11 1021.79 1022.47 1023.13 1023.75 1024.32 1024.82 1025.26 1025.63 1025.96 1026.24 1026.49 1026.73 1026.95 1027.16 1027.36 1027.55 1027.71 1027.85 1027.95 1028.01 1028.03 1028.01 1027.94 1027.85 1027.73 1027.59 1027.43 1027.26 1027.08 1026.89 1026.69 1026.47 1026.26 1026.03 1025.80 1025.58 1025.37
1018.97 1019.28 1019.69 1020.19 1020.75 1021.37 1022.03 1022.69 1023.34 1023.95 1024.52 1025.03 1025.48 1025.87 1026.21 1026.50 1026.76 1026.99 1027.19 1027.39 1027.56 1027.73 1027.88 1028.01 1028.11 1028.19 1028.24 1028.25 1028.23 1028.19 1028.11 1028.01 1027.89 1027.74 1027.56 1027.37 1027.16 1026.94 1026.70 1026.46 1026.22 1025.99 1025.77
1019.42 1019.71 1020.08 1020.54 1021.06 1021.64 1022.25 1022.87 1023.49 1024.08 1024.63 1025.14 1025.58 1025.97 1026.31 1026.60 1026.86 1027.08 1027.28 1027.46 1027.62 1027.78 1027.93 1028.06 1028.19 1028.29 1028.38 1028.44 1028.47 1028.47 1028.45 1028.39 1028.29 1028.16 1028.00 1027.81 1027.59 1027.36 1027.11 1026.86 1026.61 1026.37 1026.14
1019.84 1020.11 1020.45 1020.87 1021.35 1021.87 1022.43 1023.00 1023.57 1024.12 1024.65 1025.13 1025.56 1025.94 1026.27 1026.57 1026.82 1027.04 1027.23 1027.41 1027.58 1027.74 1027.89 1028.04 1028.19 1028.32 1028.44 1028.54 1028.62 1028.67 1028.68 1028.65 1028.58 1028.47 1028.32 1028.13 1027.91 1027.66 1027.41 1027.14 1026.89 1026.64 1026.40
1020.20 1020.46 1020.78 1021.16 1021.59 1022.06 1022.56 1023.07 1023.59 1024.10 1024.58 1025.03 1025.44 1025.81 1026.14 1026.43 1026.68 1026.90 1027.10 1027.29 1027.46 1027.63 1027.79 1027.96 1028.12 1028.28 1028.42 1028.55 1028.66 1028.74 1028.77 1028.77 1028.71 1028.61 1028.45 1028.26 1028.04 1027.79 1027.52 1027.25 1026.99 1026.73 1026.48
1020.49 1020.74 1021.04 1021.38 1021.77 1022.19 1022.64 1023.10 1023.56 1024.02 1024.46 1024.88 1025.27 1025.63 1025.95 1026.24 1026.49 1026.72 1026.93 1027.12 1027.30 1027.47 1027.64 1027.81 1027.98 1028.15 1028.31 1028.45 1028.57 1028.65 1028.70 1028.69 1028.64 1028.54 1028.38 1028.19 1027.96 1027.71 1027.44 1027.17 1026.90 1026.64 1026.39
Thickness
5757 5754 5750 5748 5745 5742 5740 5738 5737 5736 5735 5734 5733 5732 5732 5731 5730 5729 5728 5726 5725 5723 5722 5721 5720 5720 5719 5718 5716 5715 5712 5709 5704 5702 5700 5698 5697 5696 5694 5693 5691 5689 5687
5755 5751 5747 5744 5742 5739 5737 5735 5734 5732 5731 5731 5730 5729 5727 5726 5725 5725 5723 5722 5721 5719 5718 5717 5715 5715 5714 5713 5711 5709 5706 5704 5700 5696 5692 5690 5689 5688 5686 5684 5682 5680 5677
5752 5748 5744 5741 5738 5736 5734 5733 5731 5729 5728 5727 5726 5725 5723 5722 5721 5720 5719 5718 5717 5715 5713 5711 5710 5709 5708 5706 5705 5702 5700 5698 5694 5690 5686 5683 5681 5679 5677 5675 5672 5670 5668
5748 5745 5741 5737 5735 5733 5731 5729 5727 5725 5724 5723 5721 5720 5719 5718 5717 5716 5715 5714 5712 5710 5708 5707 5705 5704 5702 5700 5698 5695 5693 5690 5687 5683 5679 5676 5673 5670 5668 5665 5662 5659 5657
5745 5741 5737 5735 5732 5730 5727 5725 5723 5721 5720 5718 5717 5715 5714 5713 5712 5711 5710 5708 5706 5704 5702 5701 5699 5698 5696 5694 5692 5688 5685 5682 5679 5676 5672 5669 5665 5661 5658 5656 5653 5650 5647
5741 5737 5734 5731 5729 5726 5724 5721 5718 5716 5715 5714 5712 5710 5709 5707 5706 5705 5704 5702 5699 5697 5695 5694 5692 5690 5688 5686 5684 5681 5678 5675 5672 5668 5664 5661 5657 5653 5650 5648 5645 5642 5638
5736 5733 5730 5727 5724 5722 5719 5716 5713 5711 5710 5708 5706 5705 5702 5700 5700 5699 5697 5695 5693 5690 5688 5686 5685 5682 5680 5678 5675 5672 5669 5666 5664 5661 5657 5653 5649 5646 5642 5639 5636 5632 5628
5731 5728 5726 5723 5720 5717 5714 5711 5708 5706 5704 5702 5700 5698 5696 5694 5693 5692 5690 5688 5686 5683 5681 5678 5676 5674 5671 5669 5667 5663 5659 5656 5654 5651 5648 5644 5640 5637 5634 5630 5626 5621 5617
5726 5723 5721 5719 5715 5712 5709 5706 5703 5701 5698 5695 5693 5691 5689 5686 5685 5684 5683 5681 5677 5675 5672 5670 5667 5665 5662 5660 5658 5654 5650 5647 5644 5641 5637 5634 5631 5627 5624 5621 5616 5613 5608
5722 5719 5716 5714 5711 5707 5704 5701 5698 5696 5692 5690 5686 5684 5682 5679 5677 5676 5675 5673 5669 5666 5663 5660 5658 5655 5652 5650 5648 5645 5641 5636 5634 5631 5627 5624 5621 5617 5614 5610 5606 5603 5598
5717 5714 5711 5708 5705 5701 5698 5695 5692 5690 5686 5683 5679 5676 5674 5672 5670 5668 5666 5664 5661 5657 5654 5650 5647 5644 5642 5640 5637 5634 5630 5627 5624 5620 5616 5613 5610 5606 5602 5598 5595 5592 5588
5713 5710 5706 5702 5699 5695 5692 5689 5686 5683 5680 5676 5672 5668 5665 5663 5661 5659 5657 5655 5652 5649 5644 5640 5636 5634 5632 5630 5627 5624 5621 5618 5614 5610 5606 5601 5598 5594 5590 5586 5583 5580 5576
5709 5704 5699 5696 5692 5688 5685 5682 5678 5676 5673 5669 5665 5661 5658 5654 5652 5650 5648 5646 5643 5639 5635 5631 5628 5625 5623 5620 5616 5613 5611 5607 5603 5599 5594 5589 5585 5582 5579 5575 5572 5568 5565
5703 5698 5693 5689 5684 5680 5678 5675 5672 5668 5665 5662 5658 5654 5650 5647 5644 5642 5640 5637 5634 5630 5626 5622 5619 5616 5613 5609 5606 5602 5599 5595 5591 5587 5582 5578 5575 5571 5568 5564 5560 5557 5554
5696 5691 5686 5682 5677 5672 5668 5665 5664 5661 5659 5656 5652 5648 5645 5641 5637 5635 5632 5629 5626 5622 5618 5614 5610 5606 5603 5599 5595 5591 5587 5584 5579 5575 5571 5567 5564 5560 5556 5552 5549 5546 5543
5689 5685 5681 5676 5671 5667 5662 5657 5654 5652 5651 5648 5645 5641 5638 5634 5631 5627 5624 5621 5617 5614 5610 5605 5600 5595 5591 5587 5583 5580 5576 5572 5567 5563 5560 5556 5552 5549 5545 5542 5539 5535 5532
5685 5680 5675 5671 5666 5662 5658 5655 5649 5645 5642 5639 5636 5634 5631 5627 5623 5620 5616 5612 5608 5605 5600 5595 5589 5585 5580 5576 5572 5568 5564 5560 5556 5553 5549 5545 5542 5539 5536 5532 5529 5526 5523
5679 5675 5670 5665 5661 5657 5653 5649 5645 5641 5636 5631 5627 5625 5622 5619 5615 5611 5607 5603 5598 5594 5589 5584 5580 5575 5570 5566 5562 5558 5554 5550 5546 5543 5539 5535 5532 5529 5526 5523 5519 5516 5514
5673 5668 5664 5659 5655 5651 5646 5642 5638 5633 5629 5623 5619 5615 5612 5609 5605 5601 5597 5594 5589 5583 5579 5574 5570 5565 5560 5555 5551 5547 5543 5540 5536 5533 5529 5526 5522 5520 5517 5514 5511 5507 5505
5666 5662 5658 5653 5647 5643 5638 5634 5630 5625 5621 5616 5612 5607 5603 5600 5595 5591 5587 5583 5579 5574 5569 5565 5560 5555 5550 5546 5542 5538 5534 5530 5527 5523 5520 5516 5513 5511 5508 5505 5503 5500 5497
5658 5654 5650 5646 5641 5636 5632 5628 5623 5618 5613 5609 5604 5600 5595 5592 5587 5582 5578 5573 5569 5565 5560 5555 5551 5546 5542 5537 5533 5529 5525 5522 5518 5514 5511 5508 5505 5502 5499 5497 5494 5491 5489
5652 5647 5643 5639 5634 5630 5625 5620 5616 5611 5606 5601 5596 5592 5586 5582 5578 5574 5570 5565 5561 5556 5552 5547 5543 5538 5534 5529 5525 5521 5518 5514 5510 5506 5503 5500 5497 5494 5492 5489 5486 5483 5481
5644 5640 5635 5631 5627 5622 5617 5613 5608 5604 5599 5594 5589 5584 5579 5575 5570 5566 5562 5557 5553 5548 5544 5539 5535 5531 5526 5522 5518 5514 5510 5507 5503 5499 5496 5493 5490 5487 5484 5481 5479 5476 5474
5637 5633 5628 5623 5619 5614 5610 5605 5601 5596 5591 5586 5582 5577 5572 5568 5563 5559 5554 5550 5545 5541 5536 5532 5528 5524 5520 5516 5511 5507 5503 5500 5497 5493 5490 5486 5483 5480 5477 5474 5472 5469 5467
5628 5625 5621 5616 5612 5607 5603 5598 5593 5589 5584 5579 5575 5570 5565 5561 5556 5552 5547 5542 5538 5534 5529 5525 5521 5517 5513 5509 5505 5501 5498 5494 5491 5487 5484 5480 5477 5474 5471 5468 5466 5463 5461
5620 5616 5612 5608 5604 5600 5596 5591 5587 5582 5577 5573 5568 5563 5559 5554 5550 5545 5540 5536 5531 5527 5522 5518 5514 5510 5506 5502 5498 5495 5492 5488 5485 5481 5478 5474 5471 5468 5465 5463 5460 5458 5455